Regional Weather Roundup
Issued by NWS

Home | Current Version | Previous Version | Graphics & Text | Print | Product List | Glossary On
Versions: 1 2 3 4 5 6 7 8 9 10 11 12 13 14 15 16 17 18 19 20 21 22 23 24 25 26 27 28 29 30 31 32 33 34 35 36 37 38 39 40 41 42 43 44 45 46 47 48 49 50
000
ASUS43 KLSX 130857
RWRMO

WEATHER SUMMARY FOR MISSOURI
NATIONAL WEATHER SERVICE SPRINGFIELD MO
300 AM CST SAT FEB 13 2016

NOTE: "FAIR" INDICATES FEW OR NO CLOUDS BELOW 12,000 FEET WITH NO
       SIGNIFICANT WEATHER AND/OR OBSTRUCTIONS TO VISIBILITY.
       CURRENT SKY AND/OR WEATHER CONDITIONS ARE NOT AVAILABLE FOR
       CHILLICOTHE AND FARMINGTON.

MOZ001>031-035>038-043-044-053-054-131000-
...NORTHERN AND WESTERN MISSOURI...

CITY           SKY/WX    TMP DP  RH WIND       PRES   REMARKS
KANSAS CTY INT CLOUDY    16   3  56 NE9       30.60F WCI   4
LEE`S SUMMIT   CLOUDY    17   2  51 NE9       30.61S WCI   6
ST JOSEPH      CLOUDY    16   4  59 N10       30.65R WCI   4
CHILLICOTHE      N/A     12   1  61 NE8       30.66R WCI   0

$$
MOZ066>068-077>081-088>096-101>105-131000-
...SOUTHWEST MISSOURI...

CITY           SKY/WX    TMP DP  RH WIND       PRES   REMARKS
SPRINGFIELD    CLOUDY    23   3  42 NE10      30.51S WCI  12
JOPLIN         CLOUDY    26   6  42 NE10      30.54F WCI  16

$$
MOZ032>034-039>042-045>050-055>058-069>072-131000-
...CENTRAL MISSOURI...

CITY           SKY/WX    TMP DP  RH WIND       PRES   REMARKS
COLUMBIA       NOT AVBL
JEFFERSON CITY CLOUDY    17   3  54 N9        30.63R WCI   6
ROLLA          CLOUDY    15   3  59 N12       30.53R WCI   2
SEDALIA        CLOUDY    17   3  54 N10       30.62S WCI   5

$$
MOZ051-052-059>065-131000-
...EAST CENTRAL MISSOURI...

CITY           SKY/WX    TMP DP  RH WIND       PRES   REMARKS
ST LOUIS INTL  CLEAR     14   3  61 N13       30.60R WCI   0

$$
MOZ072>076-082>087-097>100-106>115-131000-
...SOUTH CENTRAL AND SOUTHEAST MISSOURI...

CITY           SKY/WX    TMP DP  RH WIND       PRES   REMARKS
CAPE GIRARDEAU NOT AVBL
POPLAR BLUFF   PTCLDY    25   7  46 N10       30.54R WCI  15
WEST PLAINS    CLOUDY    23   8  52 N10       30.50R WCI  12

$$


USA.gov is the U.S. government's official web portal to all federal, state and local government web resources and services.